TimeEDT,TemperatureF,Dew PointF,Humidity,Sea Level PressureIn,VisibilityMPH,Wind Direction,Wind SpeedMPH,Gust SpeedMPH,PrecipitationIn,Events,Conditions,WindDirDegrees,DateUTC
12:15 AM,41.0,37.4,87,29.88,7.0,WNW,10.4,18.4,N/A,,Overcast,290,2013-03-12 04:15:00
12:35 AM,39.2,35.6,87,29.90,5.0,WNW,11.5,17.3,N/A,,Overcast,290,2013-03-12 04:35:00
12:55 AM,39.2,35.6,87,29.90,7.0,West,6.9,-,N/A,,Overcast,280,2013-03-12 04:55:00
1:15 AM,39.2,35.6,87,29.89,10.0,West,5.8,-,N/A,,Overcast,280,2013-03-12 05:15:00
1:35 AM,39.2,35.6,87,29.90,7.0,West,8.1,-,N/A,,Overcast,280,2013-03-12 05:35:00
1:55 AM,37.4,35.6,93,29.88,10.0,South,4.6,-,N/A,,Overcast,190,2013-03-12 05:55:00
2:15 AM,37.4,33.8,87,29.90,10.0,SW,3.5,-,N/A,,Overcast,220,2013-03-12 06:15:00
2:35 AM,37.4,33.8,87,29.91,10.0,NNE,3.5,-,N/A,,Overcast,20,2013-03-12 06:35:00
2:55 AM,37.4,33.8,87,29.90,10.0,Calm,Calm,-,N/A,,Overcast,0,2013-03-12 06:55:00
3:15 AM,37.4,33.8,87,29.91,10.0,Calm,Calm,-,N/A,,Overcast,0,2013-03-12 07:15:00
3:35 AM,37.4,33.8,87,29.91,10.0,WNW,4.6,-,N/A,,Overcast,300,2013-03-12 07:35:00
3:55 AM,37.4,32.0,81,29.91,10.0,Calm,Calm,-,N/A,,Overcast,0,2013-03-12 07:55:00
4:15 AM,37.4,32.0,81,29.90,10.0,NNW,4.6,-,N/A,,Overcast,340,2013-03-12 08:15:00
4:35 AM,37.4,32.0,81,29.91,10.0,WNW,6.9,-,N/A,,Overcast,300,2013-03-12 08:35:00
4:55 AM,37.4,32.0,81,29.91,10.0,West,8.1,-,N/A,,Overcast,280,2013-03-12 08:55:00
5:15 AM,37.4,32.0,81,29.91,10.0,WNW,6.9,-,N/A,,Overcast,290,2013-03-12 09:15:00
5:35 AM,37.4,32.0,81,29.91,10.0,NNW,5.8,-,N/A,,Overcast,340,2013-03-12 09:35:00
5:55 AM,35.6,32.0,87,29.92,10.0,West,4.6,-,N/A,,Overcast,270,2013-03-12 09:55:00
6:15 AM,35.6,32.0,87,29.93,10.0,NW,4.6,-,N/A,,Overcast,320,2013-03-12 10:15:00
6:35 AM,35.6,32.0,87,29.94,10.0,NNW,5.8,-,N/A,,Overcast,340,2013-03-12 10:35:00
6:55 AM,35.6,32.0,87,29.95,10.0,West,5.8,-,N/A,,Overcast,280,2013-03-12 10:55:00
7:15 AM,35.6,32.0,87,29.96,10.0,NNW,4.6,-,N/A,,Overcast,330,2013-03-12 11:15:00
7:35 AM,35.6,32.0,87,29.96,10.0,WNW,5.8,-,N/A,,Overcast,300,2013-03-12 11:35:00
7:55 AM,35.6,32.0,87,29.97,10.0,WNW,3.5,-,N/A,,Overcast,300,2013-03-12 11:55:00
8:15 AM,35.6,32.0,87,29.97,10.0,NW,4.6,-,N/A,,Overcast,320,2013-03-12 12:15:00
8:35 AM,35.6,32.0,87,29.97,10.0,Calm,Calm,-,N/A,,Overcast,0,2013-03-12 12:35:00
8:55 AM,35.6,32.0,87,29.98,10.0,Calm,Calm,-,N/A,,Overcast,0,2013-03-12 12:55:00
9:15 AM,35.6,32.0,87,29.99,10.0,WSW,3.5,-,N/A,,Overcast,250,2013-03-12 13:15:00
9:35 AM,35.6,32.0,87,29.99,5.0,WNW,5.8,-,N/A,,Overcast,300,2013-03-12 13:35:00
9:55 AM,35.6,32.0,87,29.99,10.0,Calm,Calm,-,N/A,,Overcast,0,2013-03-12 13:55:00
10:15 AM,35.6,32.0,87,29.99,10.0,NW,5.8,-,N/A,,Overcast,320,2013-03-12 14:15:00
10:35 AM,37.4,32.0,81,30.01,10.0,NW,5.8,-,N/A,,Overcast,310,2013-03-12 14:35:00
10:55 AM,37.4,32.0,81,30.02,10.0,West,13.8,-,N/A,,Overcast,270,2013-03-12 14:55:00
11:15 AM,35.6,30.2,81,30.01,10.0,West,4.6,-,N/A,,Overcast,280,2013-03-12 15:15:00
11:35 AM,37.4,32.0,81,30.01,10.0,WNW,4.6,-,N/A,,Overcast,290,2013-03-12 15:35:00
11:55 AM,37.4,30.2,75,30.02,10.0,WNW,9.2,-,N/A,,Overcast,300,2013-03-12 15:55:00
12:15 PM,35.6,30.2,81,30.04,10.0,West,9.2,17.3,N/A,,Overcast,270,2013-03-12 16:15:00
12:35 PM,35.6,30.2,81,30.04,10.0,WNW,5.8,-,N/A,,Overcast,300,2013-03-12 16:35:00
12:55 PM,37.4,30.2,75,30.03,10.0,NW,5.8,-,N/A,,Overcast,320,2013-03-12 16:55:00
1:15 PM,37.4,30.2,75,30.03,10.0,NW,4.6,-,N/A,,Overcast,310,2013-03-12 17:15:00
1:35 PM,39.2,30.2,70,30.03,10.0,West,8.1,-,N/A,,Overcast,260,2013-03-12 17:35:00
1:55 PM,41.0,30.2,65,30.03,10.0,SW,6.9,-,N/A,,Overcast,230,2013-03-12 17:55:00
2:15 PM,41.0,30.2,65,30.03,10.0,SW,5.8,-,N/A,,Overcast,230,2013-03-12 18:15:00
2:35 PM,42.8,30.2,61,30.02,10.0,SW,5.8,-,N/A,,Overcast,230,2013-03-12 18:35:00
2:55 PM,42.8,30.2,61,30.01,10.0,WSW,3.5,-,N/A,,Mostly Cloudy,240,2013-03-12 18:55:00
3:15 PM,44.6,32.0,61,30.01,10.0,WSW,6.9,-,N/A,,Scattered Clouds,250,2013-03-12 19:15:00
3:35 PM,46.4,30.2,53,30.01,10.0,SW,5.8,-,N/A,,Mostly Cloudy,230,2013-03-12 19:35:00
3:55 PM,46.4,32.0,57,30.00,10.0,WNW,8.1,-,N/A,,Mostly Cloudy,290,2013-03-12 19:55:00
4:15 PM,46.4,32.0,57,30.01,10.0,WNW,8.1,-,N/A,,Mostly Cloudy,300,2013-03-12 20:15:00
4:35 PM,46.4,32.0,57,30.01,10.0,WNW,8.1,-,N/A,,Mostly Cloudy,290,2013-03-12 20:35:00
4:55 PM,46.4,30.2,53,30.01,10.0,WNW,10.4,-,N/A,,Mostly Cloudy,300,2013-03-12 20:55:00
5:35 PM,46.4,30.2,53,30.01,10.0,NW,9.2,-,N/A,,Scattered Clouds,320,2013-03-12 21:35:00
5:55 PM,46.4,30.2,53,30.01,10.0,NW,8.1,-,N/A,,Scattered Clouds,310,2013-03-12 21:55:00
6:15 PM,46.4,30.2,53,30.01,10.0,Calm,Calm,-,N/A,,Clear,0,2013-03-12 22:15:00
6:35 PM,46.4,30.2,53,30.01,10.0,West,8.1,-,N/A,,Scattered Clouds,280,2013-03-12 22:35:00
6:55 PM,44.6,30.2,57,30.01,10.0,West,5.8,-,N/A,,Clear,280,2013-03-12 22:55:00
7:15 PM,44.6,30.2,57,30.02,10.0,West,5.8,-,N/A,,Clear,260,2013-03-12 23:15:00
7:35 PM,44.6,30.2,57,30.02,10.0,West,5.8,-,N/A,,Clear,270,2013-03-12 23:35:00
7:55 PM,42.8,30.2,61,30.02,10.0,WNW,4.6,-,N/A,,Clear,290,2013-03-12 23:55:00
8:15 PM,41.0,30.2,65,30.02,10.0,Calm,Calm,-,N/A,,Clear,0,2013-03-13 00:15:00
8:35 PM,41.0,30.2,65,30.03,10.0,Calm,Calm,-,N/A,,Clear,0,2013-03-13 00:35:00
8:55 PM,39.2,30.2,70,30.03,10.0,Calm,Calm,-,N/A,,Clear,0,2013-03-13 00:55:00
9:15 PM,41.0,32.0,70,30.04,10.0,Calm,Calm,-,N/A,,Clear,0,2013-03-13 01:15:00
9:35 PM,37.4,32.0,81,30.04,10.0,Calm,Calm,-,N/A,,Clear,0,2013-03-13 01:35:00
9:55 PM,35.6,32.0,87,30.05,10.0,Calm,Calm,-,N/A,,Clear,0,2013-03-13 01:55:00
10:15 PM,35.6,32.0,87,30.05,10.0,Calm,Calm,-,N/A,,Clear,0,2013-03-13 02:15:00
10:35 PM,35.6,32.0,87,30.05,10.0,Calm,Calm,-,N/A,,Clear,0,2013-03-13 02:35:00
10:55 PM,35.6,32.0,87,30.06,10.0,Calm,Calm,-,N/A,,Clear,0,2013-03-13 02:55:00
11:15 PM,33.8,32.0,93,30.06,10.0,Calm,Calm,-,N/A,,Clear,0,2013-03-13 03:15:00
11:35 PM,33.8,32.0,93,30.07,10.0,Calm,Calm,-,N/A,,Clear,0,2013-03-13 03:35:00
11:55 PM,33.8,30.2,87,30.07,10.0,Calm,Calm,-,N/A,,Clear,0,2013-03-13 03:55:00